Regional Weather Roundup
Issued by NWS Goodland, KS

Home | Current Version | Previous Version | Text Only | Print | Product List | Glossary Off
Versions: 1 2 3 4 5 6 7 8 9 10 11 12 13 14 15 16 17 18 19 20 21 22 23 24 25 26 27 28 29 30 31 32 33 34 35 36 37 38 39 40 41 42 43 44 45 46 47 48 49 50

000
ASUS43 KGLD 020808
RWRGLD

GOODLAND FORECAST AREA HOURLY WEATHER ROUNDUP
NATIONAL WEATHER SERVICE GOODLAND KS
200 AM MDT THU OCT 02 2014

...OFFICIAL OBSERVATIONS...

CITY           SKY/WX    TMP DP  RH WIND       PRES   REMARKS
GOODLAND KS    CLOUDY    48  45  89 N17       29.98R
HILL CITY KS   MOCLDY    58  50  75 NW22G31   29.88R
IMPERIAL NEB   LGT RAIN  50  47  89 N13       29.97S
MCCOOK NEB     LGT RAIN  53  49  86 N21G29    29.92R
AKRON CO       CLOUDY    44  43  96 NW15      30.04R
BURLINGTON CO  CLOUDY    47  44  90 NW15      30.00R
LIMON CO       LGT RAIN  41  39  93 N13       30.07S
$$

...UNOFFICIAL OBSERVATIONS...

CITY           SKY/WX    TMP DP  RH WIND       PRES   REMARKS
COLBY KS       CLOUDY    52  52 100 N15G22    29.93S
GOVE KS          N/A     54  32  43 MISG        N/A
NORTON KS      MOCLDY    55  46  71 NW20      29.89S
SHARON SPRINGS   N/A     48  45  88 N17G25      N/A
TRENTON NEB      N/A     50  32  50 NW15        N/A
KIT CARSON CO    N/A     47  43  86 N16         N/A
YUMA CO          N/A     46  43  90 N12         N/A
$$


USA.gov is the U.S. government's official web portal to all federal, state and local government web resources and services.